Temp
17 18 19 21 20 20 20 20 20 18 17 17 16 15 15 14 15 15 14 15 14 14 15 14 14 13 13 11 10 10 10 9 8 9 10 11 10 9 9 9 8 8 8
15 15 17 17 17 19 19 19 18 16 17 16 16 15 14 13 14 14 14 13 14 14 14 13 12 12 11 10 9 9 8 7 6 6 4 2 7 9 10 9 8 8 8
16 14 13 15 16 17 18 18 17 16 16 16 15 14 13 12 12 12 12 12 12 13 12 12 11 10 9 9 7 7 7 6 6 5 5 2 2 1 6 7 6 6 5
16 14 13 13 15 16 16 17 16 15 15 15 14 14 12 10 10 11 11 11 11 11 11 10 10 9 8 8 7 6 6 5 4 5 4 4 4 1 1 4 4 3 2
16 14 13 14 15 16 15 15 15 14 14 14 14 13 11 11 10 9 10 10 10 10 9 9 9 8 7 6 6 6 5 4 4 3 2 2 2 2 -1 0 0 1 1
14 14 14 13 13 13 13 13 14 13 13 14 13 13 13 11 10 9 9 9 9 9 8 8 7 7 6 6 5 5 5 4 3 3 2 1 1 0 -1 -2 -1 -1 -0
12 11 10 10 10 11 12 12 13 12 12 13 13 12 12 11 10 10 9 9 8 8 7 7 6 6 5 5 5 4 4 3 3 2 2 1 1 0 -0 -1 -2 -2 -1
11 11 11 11 10 10 11 11 11 11 12 12 12 12 12 11 10 10 9 9 8 7 6 6 6 5 5 4 4 4 3 3 2 2 2 1 1 0 -1 -2 -3 -3 -2
10 11 11 10 10 9 10 11 11 11 11 11 11 11 11 10 9 9 9 8 7 6 6 6 5 5 4 4 3 3 3 2 2 1 1 0 0 -0 -1 -1 -2 -3 -3
11 11 10 9 9 9 9 10 11 10 10 11 11 10 10 9 9 8 8 7 6 6 5 5 5 4 3 3 3 2 2 1 1 1 0 0 0 -0 -1 -1 -2 -2 -4
10 10 9 8 8 8 8 8 9 9 9 10 10 9 8 8 8 8 7 6 6 5 5 4 4 3 3 2 2 2 1 1 1 1 0 -0 -0 -1 -1 -2 -2 -3 -4
10 9 8 7 7 7 7 7 7 8 9 9 9 8 8 8 7 6 6 5 5 5 4 4 3 3 2 2 1 1 1 0 0 0 -0 -1 -1 -2 -2 -2 -3 -3 -4
8 8 8 7 7 6 6 6 7 8 8 8 8 7 7 7 6 6 5 5 5 4 4 3 3 2 2 2 1 0 0 0 -0 -1 -1 -2 -2 -2 -3 -3 -3 -3 -3
9 8 8 7 6 6 5 5 6 8 7 8 7 7 6 6 5 5 5 4 4 4 3 2 2 2 1 1 0 0 -0 -1 -1 -2 -2 -2 -3 -3 -3 -3 -2 -3 -3
9 9 7 6 6 5 5 5 6 7 7 7 6 6 5 5 5 4 4 4 3 3 2 2 2 1 1 0 -0 -0 -0 -1 -2 -2 -2 -2 -3 -3 -2 -2 -3 -3 -3
9 8 7 6 5 5 5 5 5 6 7 6 6 5 5 5 4 4 4 3 3 2 2 1 1 0 -0 -1 -1 -0 -1 -1 -2 -2 -2 -3 -3 -3 -3 -3 -3 -2 -2
9 8 7 6 6 5 5 4 6 6 6 6 5 5 4 4 4 3 3 3 2 2 1 1 0 -0 -1 -1 -1 -1 -1 -2 -2 -2 -3 -3 -3 -4 -4 -4 -3 -3 -3
9 8 7 6 5 5 5 6 6 6 6 5 4 4 4 4 3 3 3 2 1 1 0 0 -0 -1 -1 -2 -2 -2 -2 -2 -2 -2 -3 -3 -4 -4 -3 -3 -3 -4 -4
9 8 7 6 5 5 6 6 5 5 5 4 4 4 4 3 3 2 2 1 1 0 0 -1 -1 -2 -2 -2 -3 -2 -2 -3 -3 -3 -3 -4 -4 -4 -3 -3 -4 -4 -5
8 6 6 5 5 5 6 5 4 4 4 4 4 4 3 3 2 2 1 1 0 -0 -1 -1 -2 -2 -3 -3 -3 -2 -3 -3 -3 -3 -3 -4 -4 -3 -3 -3 -4 -5 -5
6 5 5 5 4 5 5 4 4 4 4 4 3 3 2 2 2 1 1 0 -0 -1 -1 -2 -2 -2 -3 -4 -4 -3 -3 -3 -3 -3 -4 -4 -4 -3 -3 -4 -5 -5 -4
5 5 4 3 4 5 6 3 3 4 4 3 3 2 2 1 1 1 -0 -1 -1 -2 -2 -3 -3 -3 -4 -4 -4 -3 -3 -3 -3 -4 -4 -4 -4 -4 -5 -5 -5 -4 -5
4 4 3 2 3 5 5 3 3 3 3 3 2 1 1 1 0 -0 -1 -1 -2 -3 -3 -3 -4 -4 -4 -4 -4 -4 -4 -3 -3 -4 -4 -4 -5 -6 -7 -7 -6 -6 -8
3 3 3 2 2 4 4 4 3 3 3 2 1 1 1 0 -0 -1 -2 -2 -2 -3 -4 -4 -4 -4 -4 -5 -4 -4 -4 -4 -4 -4 -5 -6 -6 -7 -7 -8 -8 -8 -8
3 3 2 1 1 3 3 3 3 3 2 1 1 0 -0 -1 -1 -2 -2 -3 -3 -4 -3 -4 -4 -4 -5 -5 -4 -4 -3 -4 -4 -5 -7 -8 -8 -8 -8 -8 -8 -8 -8
2 1 0 0 1 2 2 2 2 3 2 1 0 -0 -1 -1 -2 -2 -2 -3 -3 -4 -4 -4 -4 -5 -5 -4 -4 -4 -4 -4 -5 -7 -8 -8 -9 -9 -9 -9 -8 -8 -8
Height
723 722 723 723 725 726 727 729 732 736 740 744 749 757 761 769 773 776 782 784 786 789 790 791 793 794 794 795 794 794 794 792 790 786 782 780 780 781 782 781 781 780 779
721 720 719 719 721 723 723 726 730 734 737 740 746 752 759 767 771 775 780 785 786 789 790 791 792 794 795 796 794 794 795 795 793 792 790 789 782 779 778 778 778 777 777
715 716 717 717 720 721 721 723 727 732 736 739 745 751 760 767 772 777 780 785 788 789 790 791 793 794 795 794 795 797 796 796 797 796 795 796 796 788 778 777 777 776 776
706 708 712 714 716 718 721 723 725 731 736 739 743 746 752 762 771 775 781 785 788 789 790 791 793 794 795 795 796 797 797 797 797 797 797 798 797 795 785 776 774 774 772
694 696 701 705 710 716 718 722 725 730 735 739 744 748 755 762 769 775 780 784 788 789 790 792 793 794 795 796 797 797 797 797 798 797 796 795 794 793 794 781 772 771 769
686 688 691 697 705 713 718 721 723 730 735 739 744 749 753 761 769 776 780 784 787 789 790 792 794 796 796 797 797 796 797 797 796 795 795 794 794 793 792 785 777 770 762
679 685 690 695 701 708 716 720 722 729 735 740 746 751 755 761 768 775 779 784 786 788 791 793 796 796 796 797 797 797 797 796 795 794 793 792 792 791 790 786 778 768 758
677 677 683 689 694 702 712 718 722 728 734 740 746 753 759 765 771 775 780 784 786 789 792 794 796 797 797 797 797 796 795 794 793 792 791 790 790 789 787 784 779 764 756
674 678 681 685 691 700 709 715 721 728 735 741 748 755 762 767 771 776 781 784 787 790 793 795 796 797 796 796 795 795 793 793 791 790 789 787 786 785 783 780 778 775 757
670 676 681 687 691 699 708 715 722 729 737 744 750 757 764 769 773 778 781 785 788 791 792 794 795 795 795 795 794 793 792 791 789 787 785 784 782 780 777 775 773 770 766
667 673 682 688 697 701 710 715 724 731 740 747 752 759 766 770 775 779 782 785 788 790 792 793 794 794 794 793 792 791 789 787 785 784 781 779 777 774 772 769 766 762 759
666 675 682 688 698 706 714 717 726 733 742 750 754 761 766 772 777 780 783 786 788 790 791 792 792 793 792 791 789 788 786 784 782 780 778 775 772 769 766 763 758 754 750
668 678 684 693 699 709 715 720 729 737 745 751 756 763 769 775 778 781 784 786 788 789 791 792 792 791 790 788 787 786 784 782 779 776 773 771 767 763 760 756 751 746 742
667 676 688 696 704 712 717 724 732 740 748 753 759 766 772 776 779 782 784 786 787 789 790 790 790 790 788 787 786 783 781 778 776 773 770 767 763 758 754 750 745 741 735
671 680 689 699 708 715 721 729 736 743 750 755 762 768 773 777 780 782 784 785 787 788 789 789 789 788 787 785 783 781 778 775 772 769 766 762 758 754 750 745 739 734 727
675 684 693 702 710 716 723 732 739 746 752 758 764 770 774 778 780 782 784 785 787 788 788 788 787 786 784 782 781 778 775 772 768 764 760 757 752 748 745 740 735 729 721
677 686 695 704 711 718 725 734 741 748 754 760 766 770 774 777 780 782 784 785 787 787 787 787 786 783 782 780 777 774 771 768 764 760 755 751 747 743 737 730 726 720 717
681 691 699 706 714 721 729 736 744 750 756 762 767 771 775 778 780 782 784 785 786 786 786 784 783 781 779 776 773 770 767 764 760 755 751 746 741 737 731 724 717 712 708
682 690 697 705 714 722 730 738 746 752 758 763 768 772 775 778 780 783 784 785 785 785 783 782 780 778 775 773 770 767 763 759 754 750 746 743 738 733 725 718 712 705 700
684 690 699 708 716 725 732 739 747 754 759 764 768 773 776 778 781 783 784 784 784 783 782 780 778 776 773 770 767 764 759 754 749 745 742 738 734 726 720 714 708 701 694
686 695 703 709 718 726 733 742 749 754 760 765 770 774 777 779 782 783 783 783 783 782 781 778 775 773 771 767 764 761 756 751 746 741 737 733 727 721 716 711 705 699 690
693 699 705 715 722 728 734 743 751 757 762 767 772 775 778 780 782 782 782 782 781 780 778 775 772 770 768 765 761 757 754 749 743 738 733 727 722 717 712 706 701 694 688
697 703 709 718 726 732 737 744 753 759 765 769 773 776 779 780 781 782 782 781 780 778 776 774 771 768 765 761 758 754 750 745 739 735 729 723 718 712 707 703 697 691 685
703 708 714 723 731 737 742 748 755 761 765 770 774 777 779 780 781 781 781 780 778 777 775 773 770 765 761 758 753 749 745 740 735 730 724 720 715 709 704 698 692 687 682
709 714 719 727 735 741 747 753 758 763 767 771 774 777 779 780 780 780 780 779 778 777 775 771 768 763 759 756 752 748 742 737 732 726 721 715 711 705 700 694 689 683 677
714 719 726 732 740 746 752 758 762 765 768 772 775 777 778 779 779 779 778 779 777 775 773 770 767 762 758 753 749 744 739 735 729 723 719 714 710 704 698 692 685 679 673
Wind_Speed
12 18 19 17 17 17 16 14 17 25 30 33 32 28 30 27 28 25 21 18 15 13 12 12 10 8 9 11 12 11 12 16 22 12 16 8 6 5 6 14 17 11 17
7 8 11 13 18 19 19 16 19 26 31 34 31 31 34 28 28 25 20 17 18 15 13 11 10 10 9 10 13 14 11 11 19 11 4 4 6 6 20 20 9 18 17
12 8 8 16 17 18 21 21 22 27 30 33 32 34 30 29 26 24 23 19 17 16 12 11 10 10 10 12 13 13 13 12 13 11 7 3 2 7 5 13 14 11 24
12 9 8 11 21 21 20 22 25 27 28 32 36 42 32 27 20 28 24 21 16 15 12 11 10 10 10 11 11 11 12 10 10 4 8 3 5 3 5 5 19 8 29
16 14 12 20 26 23 23 23 25 26 29 32 35 33 29 24 32 29 26 21 17 14 13 11 11 10 10 10 9 10 11 10 7 7 5 4 8 5 3 8 10 26 24
12 11 13 20 22 21 23 26 28 27 30 32 34 35 36 37 34 29 25 21 17 15 13 11 10 9 9 8 9 10 9 8 8 7 7 4 1 4 4 4 13 15 18
9 10 13 12 21 26 27 28 30 29 30 31 31 31 34 36 33 27 24 20 16 14 12 10 9 8 8 8 8 8 8 9 9 8 8 3 7 10 13 13 14 10 24
7 13 15 13 23 26 29 27 31 32 30 30 29 31 32 31 26 23 20 17 15 13 11 9 7 7 7 8 8 9 9 10 10 10 7 11 13 11 13 14 14 12 6
11 12 13 17 23 25 28 32 33 31 30 30 32 32 30 28 25 22 18 17 14 12 9 7 6 6 7 9 10 10 11 11 10 11 13 14 15 14 16 16 17 11 10
11 10 11 13 21 26 30 32 33 34 33 35 35 32 28 25 23 20 18 15 13 10 8 6 6 6 7 9 10 11 11 11 13 15 15 17 18 18 19 20 21 21 19
14 14 12 16 19 26 29 33 35 37 36 35 34 31 28 24 21 19 16 14 12 9 7 5 5 7 8 10 12 12 12 15 16 16 18 20 20 22 22 23 24 24 22
14 13 14 19 21 22 26 31 34 37 36 34 33 30 26 23 20 18 15 12 10 7 6 5 6 8 10 12 13 14 14 16 18 19 20 20 20 21 23 24 25 25 25
16 14 14 13 18 21 24 29 34 36 35 34 32 28 24 21 19 16 13 10 8 6 5 5 7 10 12 14 14 13 16 17 18 18 18 22 23 23 23 25 25 25 22
17 16 13 13 17 21 24 29 33 36 34 32 30 26 22 19 17 15 12 9 7 5 5 7 9 11 13 14 14 15 17 18 18 19 23 22 22 22 25 23 23 23 28
15 15 15 13 16 21 24 28 33 34 33 31 27 24 21 18 16 13 10 8 6 5 6 8 10 12 14 16 15 17 18 19 19 22 23 23 21 22 24 27 28 29 29
15 14 14 14 13 22 24 27 31 33 31 29 26 23 20 17 14 11 8 6 5 5 7 10 12 14 15 17 15 17 19 20 22 25 26 25 23 24 25 28 28 29 33
15 15 15 14 20 23 28 28 33 31 29 27 24 21 18 15 12 9 7 5 5 7 9 10 13 16 17 15 16 18 20 22 23 25 27 27 26 26 29 31 30 29 28
14 13 13 17 21 26 28 34 33 30 28 25 22 19 16 14 10 7 6 5 6 8 10 12 15 17 17 16 17 19 21 22 24 26 25 25 28 27 31 33 25 29 26
13 13 21 25 28 30 33 34 31 29 27 24 21 18 15 12 9 6 5 5 6 8 12 14 16 17 17 18 19 21 23 24 26 26 21 23 26 31 33 31 29 28 26
17 21 25 27 28 28 35 33 29 28 25 23 20 16 13 10 8 6 4 5 8 10 13 15 15 16 18 19 19 21 22 23 24 21 23 21 28 31 31 32 28 25 31
21 24 25 25 27 33 34 28 29 25 24 21 19 16 12 9 7 5 5 7 9 12 13 16 18 17 19 20 19 20 22 24 24 24 23 25 29 33 33 31 25 27 32
19 22 23 23 27 33 34 26 24 24 23 21 18 14 11 8 5 5 5 8 10 13 15 19 21 20 21 21 19 21 23 25 27 24 26 28 32 32 30 26 26 28 28
18 21 25 25 24 29 30 26 26 25 23 20 16 12 9 6 5 5 7 10 11 14 16 18 18 22 22 23 21 22 23 27 26 26 30 31 30 28 25 23 26 25 23
16 22 25 22 23 24 25 30 27 24 22 18 14 11 7 5 4 5 8 11 13 14 17 17 17 22 24 20 23 24 27 23 23 26 24 26 25 22 24 24 24 23 23
18 21 23 22 24 26 29 27 25 22 20 16 12 8 5 4 5 7 9 12 12 11 17 18 20 21 18 20 24 26 27 27 28 29 23 23 21 22 23 24 25 25 24
20 22 23 27 28 31 27 23 20 17 17 14 10 6 4 5 7 9 12 11 10 13 13 15 17 20 19 22 24 24 26 27 25 21 19 20 21 21 23 24 26 27 26
Wind_Direction
256 262 265 251 234 215 206 204 195 197 192 176 165 161 156 155 152 150 149 151 148 137 133 119 101 74 48 42 37 33 22 17 8 1 348 2 2 279 282 333 327 333 342
255 252 241 215 206 205 196 191 188 184 182 177 170 159 153 150 146 145 144 143 140 132 121 108 88 69 57 47 41 40 37 28 23 13 351 2 342 6 320 315 321 318 318
247 229 207 206 198 199 192 184 180 180 181 178 165 154 147 140 136 137 133 131 131 121 112 95 82 71 58 55 48 42 41 30 30 44 47 2 310 327 309 305 303 317 315
229 214 195 186 200 199 191 183 176 179 179 174 166 158 152 144 150 143 136 130 123 115 102 91 79 69 64 63 53 42 38 35 33 38 17 357 288 314 322 316 308 317 319
217 203 187 195 198 190 184 181 173 173 172 172 165 156 146 147 147 139 134 127 119 108 96 83 75 73 69 62 48 37 29 28 23 20 2 340 315 288 273 301 310 313 313
211 201 186 171 171 177 175 174 169 167 170 170 168 168 158 148 143 142 131 123 116 104 91 84 79 77 68 52 37 25 16 13 9 5 348 335 339 309 295 287 307 300 313
191 166 161 156 152 165 170 170 168 162 166 166 167 164 156 151 146 142 133 128 116 102 95 89 86 72 55 37 22 12 6 1 352 344 339 334 322 311 309 302 303 300 310
193 178 170 164 157 158 163 162 160 156 161 162 160 158 151 145 139 136 131 122 112 108 102 92 77 60 40 23 11 2 356 347 338 337 328 318 315 306 309 302 305 315 295
171 178 165 160 152 152 157 158 154 154 156 155 150 146 145 141 135 130 125 117 113 108 103 88 67 44 23 9 358 349 345 338 340 335 323 311 310 295 301 304 304 288 310
165 159 155 149 147 142 148 152 155 151 150 147 144 142 140 136 130 128 120 119 112 109 99 77 47 25 8 356 349 343 342 337 336 333 323 314 313 303 299 299 296 288 271
162 152 140 130 131 131 140 141 145 144 144 144 140 137 134 130 127 124 121 117 114 104 88 58 28 9 357 352 345 343 342 336 333 330 326 320 319 310 305 302 301 288 273
144 137 133 126 130 128 133 134 138 141 145 142 137 133 131 130 128 123 119 118 109 97 69 36 11 357 350 347 346 342 339 333 330 328 325 321 321 314 312 308 303 285 279
128 129 125 130 127 131 130 131 139 141 143 141 136 132 131 132 126 122 121 115 103 82 47 18 3 354 348 345 344 341 334 330 328 327 327 323 319 315 313 309 298 294 292
137 132 128 126 127 130 129 131 136 145 144 140 136 134 134 131 128 125 119 109 89 59 32 10 358 349 347 343 342 339 330 329 328 328 326 324 321 316 315 312 308 308 301
135 137 132 130 128 126 125 133 140 146 145 139 137 135 135 134 130 123 113 96 70 43 18 0 354 349 342 341 335 328 325 327 325 325 325 327 321 314 315 313 315 309 302
139 134 131 131 134 134 134 136 142 146 147 142 139 140 138 135 128 120 107 86 60 32 10 358 348 341 339 335 326 324 323 324 324 321 324 327 323 317 314 313 311 307 310
144 142 142 143 140 139 140 140 148 149 148 144 143 142 139 133 126 117 98 73 41 16 2 350 340 337 336 332 326 325 321 322 320 320 321 322 318 317 318 310 305 304 313
141 139 140 132 133 136 142 150 152 152 149 145 143 143 140 132 125 110 86 56 25 4 350 344 341 334 335 333 329 326 321 319 321 323 320 316 319 321 315 313 317 318 314
144 143 142 137 139 145 151 150 153 153 148 146 145 145 143 133 122 105 70 36 9 353 346 343 336 333 335 338 331 327 323 322 324 322 317 318 318 316 318 325 321 318 314
135 134 133 136 138 146 153 148 148 151 151 151 146 144 139 129 117 92 56 22 360 349 339 335 338 337 336 339 330 327 325 322 317 321 320 317 320 319 324 325 324 319 310
127 128 135 140 143 151 153 144 151 152 152 148 143 136 130 120 106 75 39 9 351 342 341 338 341 339 340 336 328 330 329 324 321 325 321 318 321 325 325 323 324 309 319
124 128 125 128 142 153 153 142 145 150 148 143 136 130 123 112 84 49 25 359 350 345 346 342 337 338 338 339 330 331 329 325 326 320 318 317 323 324 324 322 321 323 324
121 126 127 125 138 151 151 138 146 147 142 137 130 127 121 98 59 27 5 359 352 349 343 337 322 325 333 337 335 328 326 325 322 322 318 321 324 324 323 323 323 324 320
119 125 124 123 118 138 145 145 145 145 142 135 131 126 110 83 43 13 358 352 350 340 336 328 319 328 330 328 330 329 325 321 324 323 326 324 325 325 322 323 322 320 319
119 124 125 120 122 137 137 140 143 145 138 132 127 122 107 62 21 1 353 345 341 333 325 324 326 325 321 322 326 327 324 330 328 328 326 327 327 325 324 322 321 321 320
115 108 110 116 126 132 132 137 142 146 139 131 127 114 83 35 7 351 341 344 333 327 326 326 325 322 318 324 326 326 330 329 331 331 327 323 324 321 320 319 317 318 319